Location: Cahas Mountain Overlook
(37.0833°N, 80.1000°W)
Time: 18:21:08
(UTC-04:00)

SR - Pass Details

Date: 17 February 2026
Orbit: 572 x 849 km, 66.7° (Epoch: 12 March)

Event Time Altitude Azimuth Distance (km) Brightness Sun altitude
Rises 13:59:30 0° 332° (NNW) 3,112 ? 37.2°
Reaches altitude 10° 14:01:47 10° 333° (NNW) 2,232 ? 37.0°
Maximum altitude 14:06:56 88° 63° (ENE) 777 ? 36.5°
Drops below altitude 10° 14:12:26 10° 153° (SSE) 2,386 ? 36.0°
Sets 14:14:56 0° 153° (SSE) 3,343 ? 35.7°
